Torna al catalogo

STARLINK-33703

AttivoComunicazioniVLEO
NORAD 63418·PAYLOAD·🇺🇸 United States

Lanciato Mar 31, 2025 da Cape Canaveral Space Force Station

Loading…

Prossimi Passaggi (prossime 24 ore)

TLE

AggiornatoSource: CelesTrak SupGP

Epoca: Sep 15, 2026, 02:49 UTC

1 63418C 25065V   26258.11784722  .00058600  00000+0  21214-2 0  2583
2 63418  42.9997 117.4742 0001435 280.0263 226.1608 15.27566797    15

Traccia STARLINK-33703 in tempo reale con AllMySat

Download on the App Store